Terug naar catalogus

DELTA 1 DEB

ActiefSSO
NORAD 7150·DEBRIS·🇺🇸 United States

Gelanceerd Nov 6, 1973 vanaf Vandenberg Space Force Base

Loading…

Volgende Passages (komende 24 uur)

TLE

VersSource: Space-Track

Epoch: Sep 14, 2026, 15:26 UTC

1 07150U 73086DQ  26257.64363877  .00000506  00000-0  47501-2 0  9993
2 07150 101.8901 218.5778 0130293  99.1837  75.6425 12.26403752358072

Volg DELTA 1 DEB in realtime met AllMySat

Download on the App Store